sat.trackr.live / text

‹ back to catalog

STARLINK-35114

NORAD 65502 · 2025-198L

PAYLOAD ACTIVE UNKNOWN

§ Identity

Operator
Country
US
Launch date
2025-09-05
Launch site
AFETR
Launch vehicle
Mass (kg)
RCS (m²)

Purposes: comms

External: N2YO · Heavens-Above · Gunter

§ Orbital elements

Epoch: 2026-09-20T19:29:57.842592Z

Period
93.85 min
Inclination
53.1590°
Eccentricity
0.0001127
Mean motion
15.34408026 rev/d
Perigee alt
461.9 km
Apogee alt
463.5 km
Semi-major
6,840.8 km
B*
6.9687e-4
RAAN
80.4619°
Arg perigee
116.2019°
Mean anomaly
243.9100°
Rev number
5,855

§ Raw data

STARLINK-351141 65502U 25198L   26263.81247503  .00023248  00000+0  69687-3 0  99992 65502  53.1590  80.4619 0001127 116.2019 243.9100 15.34408026 58557

JSON: /api/v1/satellites/65502 · /tle

For live sub-satellite position, see the globe view (requires WebGL).

§ Visibility from observer

Set your observer location to see the next 7 days of passes ≥ 10°. The values pass through the URL so the page stays shareable.

No JS? Fill the form by hand. The geolocation button needs JavaScript.